Regional Weather Roundup
Issued by NWS

Home | Current Version | Previous Version | Text Only | Print | Product List | Glossary Off
Versions: 1 2 3 4 5 6 7 8 9 10 11 12 13 14 15 16 17 18 19 20 21 22 23 24 25 26 27 28

000
ASUS45 KTFX 241110
RWRMT
MONTANA REGIONAL WEATHER ROUNDUP
NATIONAL WEATHER SERVICE GREAT FALLS MT
500 AM MDT SUN JUL 24 2016

NOTE: "FAIR" INDICATES FEW OR NO CLOUDS BELOW 12000 FEET WITH NO
SIGNIFICANT WEATHER AND/OR OBSTRUCTIONS TO VISIBILITY.

MTZ001>007-043-241200-
WEST OF THE DIVIDE

CITY           SKY/WX    TMP DP  RH WIND       PRES   REMARKS
KALISPELL      CLEAR     44  44 100 N7        30.13S
MISSOULA       CLEAR     52  43  71 CALM      30.17S
BUTTE          CLEAR     42  34  73 S3        30.24S
MULLAN PASS    CLEAR     50  39  66 CALM      30.24S
ANACONDA         N/A     48  37  66 SW5       30.22S
DEER LODGE       N/A     45  37  76 CALM      30.23S
EUREKA           N/A     48  45  87 CALM      30.14R
HAMILTON         N/A     52  39  62 CALM      30.18R
LIBBY            N/A     46  43  87 CALM      30.16S
PLAINS           N/A     47  39  73 CALM      30.15
RONAN            N/A     46  42  86 CALM      30.17S
$$

MTZ008-052>055-241200-
SOUTHWEST MONTANA

CITY           SKY/WX    TMP DP  RH WIND       PRES   REMARKS
BOZEMAN        CLEAR     52  40  63 S7        30.18S
DILLON         CLEAR     51  35  54 S6        30.20S
W YELLOWSTONE  CLOUDY    32  32 100 CALM      30.29R
ENNIS          CLEAR     46  37  71 NE5       30.25S
THREE FORKS      N/A     46  33  60 CALM      30.15S
$$

MTZ009-010-012-014-046-048-049-054-241200-
EAST SLOPES AND CENTRAL MONTANA

CITY           SKY/WX    TMP DP  RH WIND       PRES   REMARKS
CUT BANK       CLEAR     49  41  74 W10       30.09F
GREAT FALLS    CLEAR     50  39  66 SW9       30.12S
MALMSTROM AFB  CLEAR     52  41  67 S3        30.11S
HELENA         CLEAR     56  38  50 SE3       30.15S
CHOTEAU          N/A     54  39  58 SW7       30.13S
$$

MTZ011-013-016-021-045-047-050-051-241200-
NORTH CENTRAL MONTANA

CITY           SKY/WX    TMP DP  RH WIND       PRES   REMARKS
HAVRE          CLEAR     53  49  86 MISG      30.03F
LEWISTOWN      CLEAR     51  43  74 E5        30.13S
N BAR RANCH      N/A     55  43  62 CALM      30.16R
CHINOOK          N/A     52  50  93 CALM      30.03S
$$

MTZ017>020-022>027-061-062-241200-
NORTHEAST MONTANA

CITY           SKY/WX    TMP DP  RH WIND       PRES   REMARKS
GLASGOW        CLEAR     56  52  86 SE6       30.02R
JORDAN           N/A     51  47  86 W5        30.05S
SIDNEY         CLEAR     54  51  90 CALM      30.02S
WOLF POINT     CLEAR     54  51  90 CALM      30.02F
PLENTYWOOD       N/A     55  52  88 NW6       30.02R
POPLAR           N/A     55  52  88 SW3       30.03S
SCOBEY           N/A     49  40  71 CALM      30.02S
$$

MTZ028>42-056>058-241200-
SOUTHCENTRAL AND SOUTHEAST MONTANA

CITY           SKY/WX    TMP DP  RH WIND       PRES   REMARKS
BAKER          PTCLDY    52  49  89 CALM      30.09R
BILLINGS       PTCLDY    61  43  51 W7        30.09S
LIVINGSTON     CLEAR     49  38  65 NW7       30.17S
MILES CITY     CLEAR     62  49  62 SE6       30.05F
EKALAKA          N/A     59  46  61 SE6       30.08F
FORSYTH          N/A     61  52  72 CALM      30.06R
LAUREL           N/A     56  44  64 CALM      30.08S
ROUNDUP          N/A     54  44  68 S1        30.00S
$$

REGIONAL REPORTS...DAKOTAS

CITY           SKY/WX    TMP DP  RH WIND       PRES   REMARKS
WILLISTON      CLEAR     58  52  80 W10       30.00S
MINOT          CLEAR     65  55  70 W15       29.92R
DICKINSON      CLEAR     51  48  89 W6        30.03S
CROSBY           N/A     55  55 100 W9        30.00R
WATFORD CITY     N/A    N/A N/A N/A MISG        N/A
BISMARCK       CLEAR     61  56  83 NW7       29.99F
GRAND FORKS    PTCLDY    63  59  87 NW9       29.80R
FARGO          CLEAR     62  59  90 W8        29.83R
BUFFALO SD       N/A     63  50  62 N14       30.01F
RAPID CITY     CLOUDY    66  48  52 N10       30.09F
$$

REGIONAL REPORTS...WYOMING/IDAHO/WASHINGTON

CITY           SKY/WX    TMP DP  RH WIND       PRES   REMARKS
GILLETTE       MOCLDY    55  41  59 S3        30.13S
SHERIDAN       CLOUDY    57  43  59 N7        30.11F
BUFFALO WY     PTCLDY    61  38  42 SW6       30.17F
CODY           CLOUDY    54  37  54 S6        30.17F
YELLOWSTONE LA   N/A     36  32  85 NW3       30.35R
IDAHO FALLS    CLEAR     50  36  58 SW8       30.14R
SALMON         CLEAR     52  41  66 CALM      30.16S
BOISE          CLEAR     60  42  51 S3        30.05S
SPOKANE        CLEAR     59  45  59 CALM      30.12S
$$

REGIONAL REPORTS...ALBERTA

CITY           SKY/WX    TMP DP  RH WIND       PRES   REMARKS
EDMONTON       CLOUDY    55  52  88 SW6       29.95S
CALGARY        PTCLDY    55  43  62 N3        30.06S
LETHBRIDGE     CLEAR     52  46  82 W5        30.04F
MEDICINE HAT   CLEAR     52  50  93 SW6       30.00R
WATERTON GATE    N/A     57  43  58 SW13G20     N/A
MILK RIVER       N/A     50  43  76 NW9         N/A
ONEFOUR          N/A     54  45  71 CALM        N/A
$$

REGIONAL REPORTS...SASKATCHEWAN

CITY           SKY/WX    TMP DP  RH WIND       PRES   REMARKS
SWIFT CURRENT  CLEAR     54  52  94 SW10      30.01S
REGINA         PTCLDY    55  54  94 W12       29.95R
SASKATOON      PTCLDY    50  50 100 W8        29.95R
CYPRESS HILLS    N/A     52  45  76 SW3         N/A
VAL MARIE        N/A     46  45  93 E3          N/A
ROCKGLEN         N/A     52  48  87 W7          N/A
ASSINIBOIA       N/A     52  50  93 S3          N/A
$$




USA.gov is the U.S. government's official web portal to all federal, state and local government web resources and services.